Location: Mexico
(19.4000°N, 99.1500°W)
Time: 21:52:10
(UTC-06:00)

ISS - Pass Details

Date: 28 June 2017
Orbit: 401 x 408 km, 51.6° (Epoch: 29 June)

Event Time Altitude Azimuth Distance (km) Brightness Sun altitude
Exits shadow 05:35:07 - 204° (SSW) 2,048 -0.7 -6.4°
Reaches altitude 10° 05:36:38 10° 197° (SSW) 1,441 -1.4 -6.0°
Maximum altitude 05:39:41 39° 126° (SE) 612 -2.6 -5.4°
Drops below altitude 10° 05:42:45 10° 56° (NE) 1,447 0.8 -4.8°
Sets 05:44:54 0° 48° (NE) 2,308 1.9 -4.3°
